カタログに戻る

STARLINK-34920

運用中通信SSO
NORAD 65447·PAYLOAD·🇺🇸 United States

打ち上げ Sep 3, 2025 から Vandenberg Space Force Base

Loading…

次のパス (今後24時間)

TLE

最新Source: CelesTrak SupGP

元期: Sep 14, 2026, 13:59 UTC

1 65447C 25194P   26257.58312500 -.00141840  00000+0 -43987-2 0  2572
2 65447  97.2844 107.3054 0001985  90.1904 158.7595 15.33540981    18

AllMySatでSTARLINK-34920をリアルタイム追跡

Download on the App Store